Time,TemperatureF,DewpointF,PressureIn,WindDirection,WindDirectionDegrees,WindSpeedMPH,WindSpeedGustMPH,Humidity,HourlyPrecipIn,Conditions,Clouds,dailyrainin,SoftwareType,DateUTC
2013-10-24 00:00:00,29.8,24.4,29.54,WSW,248,0.0,0.6,80,0.00,,,-99.99,VWS V12.07,2013-10-24 05:00:00,
2013-10-24 00:05:00,29.8,24.4,29.54,SW,225,0.6,2.9,80,0.00,,,-99.99,VWS V12.07,2013-10-24 05:05:00,
2013-10-24 00:10:00,29.8,24.4,29.54,WSW,248,0.0,3.8,80,0.00,,,-99.99,VWS V12.07,2013-10-24 05:10:00,
2013-10-24 00:15:00,29.8,24.4,29.55,WNW,292,2.4,3.8,80,0.00,,,-99.99,VWS V12.07,2013-10-24 05:15:00,
2013-10-24 00:20:00,30.0,24.6,29.55,West,270,2.9,2.9,80,0.00,,,-99.99,VWS V12.07,2013-10-24 05:20:00,
2013-10-24 00:25:00,30.0,24.6,29.55,WSW,248,4.2,4.2,80,0.00,,,-99.99,VWS V12.07,2013-10-24 05:25:00,
2013-10-24 00:30:00,30.0,24.6,29.54,SSW,202,0.0,4.2,80,0.00,,,-99.99,VWS V12.07,2013-10-24 05:30:00,
2013-10-24 00:35:00,30.0,24.9,29.54,SW,225,0.0,0.0,81,0.00,,,-99.99,VWS V12.07,2013-10-24 05:35:00,
2013-10-24 00:40:00,30.0,24.9,29.53,SW,225,0.0,0.0,81,0.00,,,-99.99,VWS V12.07,2013-10-24 05:40:00,
2013-10-24 00:45:00,30.0,24.9,29.53,NW,315,0.0,1.7,81,0.00,,,-99.99,VWS V12.07,2013-10-24 05:45:00,
2013-10-24 00:50:00,30.0,24.9,29.53,NW,315,5.1,5.1,81,0.00,,,-99.99,VWS V12.07,2013-10-24 05:50:00,
2013-10-24 00:55:00,30.0,24.9,29.53,WSW,248,0.0,5.1,81,0.00,,,-99.99,VWS V12.07,2013-10-24 05:55:00,
2013-10-24 01:00:00,30.0,24.9,29.52,NNW,338,0.0,5.1,81,0.00,,,-99.99,VWS V12.07,2013-10-24 06:00:00,
2013-10-24 01:05:00,30.0,0.0,29.52,North,0,0.0,0.0,0,0.00,,,-99.99,VWS V12.07,2013-10-24 06:05:00,
2013-10-24 01:10:00,30.0,24.9,29.52,NNW,338,0.0,0.0,81,0.00,,,-99.99,VWS V12.07,2013-10-24 06:10:00,
2013-10-24 01:15:00,30.0,24.9,29.52,WNW,292,0.0,0.0,81,0.00,,,-99.99,VWS V12.07,2013-10-24 06:15:00,
2013-10-24 01:20:00,30.0,24.9,29.52,NW,315,0.0,5.1,81,0.00,,,-99.99,VWS V12.07,2013-10-24 06:20:00,
2013-10-24 01:25:00,30.0,24.9,29.52,West,270,0.0,5.1,81,0.00,,,-99.99,VWS V12.07,2013-10-24 06:25:00,
2013-10-24 01:30:00,30.0,24.9,29.52,West,270,0.0,5.1,81,0.00,,,-99.99,VWS V12.07,2013-10-24 06:30:00,
2013-10-24 01:35:00,30.0,24.9,29.52,WSW,248,5.8,5.8,81,0.00,,,-99.99,VWS V12.07,2013-10-24 06:35:00,
2013-10-24 01:40:00,30.0,24.9,29.52,WSW,248,0.0,5.8,81,0.00,,,-99.99,VWS V12.07,2013-10-24 06:40:00,
2013-10-24 01:45:00,29.8,24.7,29.53,North,0,0.0,5.8,81,0.00,,,-99.99,VWS V12.07,2013-10-24 06:45:00,
2013-10-24 01:50:00,29.8,24.7,29.53,NW,315,0.0,0.0,81,0.00,,,-99.99,VWS V12.07,2013-10-24 06:50:00,
2013-10-24 01:55:00,29.8,24.7,29.52,North,0,0.0,0.0,81,0.00,,,-99.99,VWS V12.07,2013-10-24 06:55:00,
2013-10-24 02:00:00,29.8,24.7,29.52,SSW,202,0.0,0.0,81,0.00,,,-99.99,VWS V12.07,2013-10-24 07:00:00,
2013-10-24 02:05:00,29.8,25.0,29.54,WSW,248,0.0,0.0,82,0.00,,,-99.99,VWS V12.07,2013-10-24 07:05:00,
2013-10-24 02:10:00,29.6,24.8,29.55,NE,45,0.0,0.0,82,0.00,,,-99.99,VWS V12.07,2013-10-24 07:10:00,
2013-10-24 02:15:00,29.6,24.8,29.56,ENE,68,0.0,0.0,82,0.00,,,-99.99,VWS V12.07,2013-10-24 07:15:00,
2013-10-24 02:20:00,29.6,24.8,29.55,WNW,292,0.0,0.0,82,0.00,,,-99.99,VWS V12.07,2013-10-24 07:20:00,
2013-10-24 02:25:00,29.4,24.6,29.55,NNE,22,1.3,1.3,82,0.00,,,-99.99,VWS V12.07,2013-10-24 07:25:00,
2013-10-24 02:30:00,29.4,24.6,29.55,WNW,292,0.0,1.3,82,0.00,,,-99.99,VWS V12.07,2013-10-24 07:30:00,
2013-10-24 02:35:00,29.4,24.6,29.55,SW,225,0.0,1.7,82,0.00,,,-99.99,VWS V12.07,2013-10-24 07:35:00,
2013-10-24 02:40:00,29.4,24.6,29.55,SW,225,0.0,1.7,82,0.00,,,-99.99,VWS V12.07,2013-10-24 07:40:00,
2013-10-24 02:45:00,29.3,24.5,29.55,NE,45,0.0,1.7,82,0.00,,,-99.99,VWS V12.07,2013-10-24 07:45:00,
2013-10-24 02:50:00,29.3,24.5,29.56,WSW,248,0.0,0.0,82,0.00,,,-99.99,VWS V12.07,2013-10-24 07:50:00,
2013-10-24 02:55:00,29.3,24.8,29.56,WNW,292,0.0,0.0,83,0.00,,,-99.99,VWS V12.07,2013-10-24 07:55:00,
2013-10-24 03:00:00,29.1,24.6,29.56,West,270,0.0,0.0,83,0.00,,,-99.99,VWS V12.07,2013-10-24 08:00:00,
2013-10-24 03:05:00,29.1,24.6,29.55,East,90,2.4,2.4,83,0.00,,,-99.99,VWS V12.07,2013-10-24 08:05:00,
2013-10-24 03:10:00,29.1,24.6,29.55,WSW,248,4.9,4.9,83,0.00,,,-99.99,VWS V12.07,2013-10-24 08:10:00,
2013-10-24 03:15:00,29.1,24.6,29.55,West,270,0.0,4.9,83,0.00,,,-99.99,VWS V12.07,2013-10-24 08:15:00,
2013-10-24 03:20:00,29.1,24.6,29.54,WSW,248,0.0,0.0,83,0.00,,,-99.99,VWS V12.07,2013-10-24 08:20:00,
2013-10-24 03:25:00,29.1,24.6,29.54,WNW,292,0.0,0.0,83,0.00,,,-99.99,VWS V12.07,2013-10-24 08:25:00,
2013-10-24 03:30:00,29.1,24.6,29.53,West,270,0.0,0.0,83,0.00,,,-99.99,VWS V12.07,2013-10-24 08:30:00,
2013-10-24 03:35:00,29.1,24.6,29.53,WNW,292,0.0,0.0,83,0.00,,,-99.99,VWS V12.07,2013-10-24 08:35:00,
2013-10-24 03:40:00,29.1,24.6,29.54,WNW,292,0.0,0.0,83,0.00,,,-99.99,VWS V12.07,2013-10-24 08:40:00,
2013-10-24 03:45:00,29.1,24.6,29.54,West,270,0.0,0.0,83,0.00,,,-99.99,VWS V12.07,2013-10-24 08:45:00,
2013-10-24 03:50:00,29.3,24.8,29.54,NNW,338,0.0,3.8,83,0.00,,,-99.99,VWS V12.07,2013-10-24 08:50:00,
2013-10-24 03:55:00,29.3,24.8,29.55,NW,315,0.0,3.8,83,0.00,,,-99.99,VWS V12.07,2013-10-24 08:55:00,
2013-10-24 04:00:00,29.3,24.8,29.55,NW,315,0.0,3.8,83,0.00,,,-99.99,VWS V12.07,2013-10-24 09:00:00,
2013-10-24 04:05:00,29.3,24.8,29.55,NW,315,0.0,0.0,83,0.00,,,-99.99,VWS V12.07,2013-10-24 09:05:00,
2013-10-24 04:10:00,29.3,24.8,29.55,NW,315,0.0,0.0,83,0.00,,,-99.99,VWS V12.07,2013-10-24 09:10:00,
2013-10-24 04:15:00,29.4,24.9,29.55,NNE,22,0.0,0.0,83,0.00,,,-99.99,VWS V12.07,2013-10-24 09:15:00,
2013-10-24 04:20:00,29.4,25.2,29.55,NNE,22,0.0,0.0,84,0.00,,,-99.99,VWS V12.07,2013-10-24 09:20:00,
2013-10-24 04:25:00,29.4,25.2,29.55,NNE,22,3.5,3.5,84,0.00,,,-99.99,VWS V12.07,2013-10-24 09:25:00,
2013-10-24 04:30:00,29.4,25.2,29.54,SSW,202,0.0,3.5,84,0.00,,,-99.99,VWS V12.07,2013-10-24 09:30:00,
2013-10-24 04:35:00,29.4,25.2,29.55,SW,225,0.0,0.0,84,0.00,,,-99.99,VWS V12.07,2013-10-24 09:35:00,
2013-10-24 04:40:00,29.6,25.4,29.56,WSW,248,0.0,0.0,84,0.00,,,-99.99,VWS V12.07,2013-10-24 09:40:00,
2013-10-24 04:50:00,29.6,25.4,29.57,WSW,248,0.0,0.0,84,0.00,,,-99.99,VWS V12.07,2013-10-24 09:50:00,
2013-10-24 04:55:00,29.6,25.4,29.58,West,270,0.0,0.0,84,0.00,,,-99.99,VWS V12.07,2013-10-24 09:55:00,
2013-10-24 05:00:00,29.6,25.4,29.58,WNW,292,0.0,0.0,84,0.00,,,-99.99,VWS V12.07,2013-10-24 10:00:00,
2013-10-24 05:05:00,29.6,25.4,29.59,WNW,292,0.0,2.0,84,0.00,,,-99.99,VWS V12.07,2013-10-24 10:05:00,
2013-10-24 05:10:00,29.8,25.6,29.59,WSW,248,3.3,3.3,84,0.00,,,-99.99,VWS V12.07,2013-10-24 10:10:00,
2013-10-24 05:15:00,29.8,25.6,29.59,WSW,248,0.0,3.3,84,0.00,,,-99.99,VWS V12.07,2013-10-24 10:15:00,
2013-10-24 05:20:00,29.8,25.6,29.58,NNW,338,0.0,1.1,84,0.00,,,-99.99,VWS V12.07,2013-10-24 10:20:00,
2013-10-24 05:25:00,29.6,25.4,29.57,NNW,338,0.0,1.1,84,0.00,,,-99.99,VWS V12.07,2013-10-24 10:25:00,
2013-10-24 05:30:00,29.8,25.6,29.57,NNW,338,0.0,1.1,84,0.00,,,-99.99,VWS V12.07,2013-10-24 10:30:00,
2013-10-24 05:35:00,29.6,25.4,29.57,NW,315,0.0,0.0,84,0.00,,,-99.99,VWS V12.07,2013-10-24 10:35:00,
2013-10-24 05:40:00,29.8,25.6,29.56,NW,315,0.0,0.6,84,0.00,,,-99.99,VWS V12.07,2013-10-24 10:40:00,
2013-10-24 05:45:00,29.6,25.4,29.56,NW,315,0.0,0.6,84,0.00,,,-99.99,VWS V12.07,2013-10-24 10:45:00,
2013-10-24 05:50:00,29.6,25.4,29.57,NW,315,0.0,0.0,84,0.00,,,-99.99,VWS V12.07,2013-10-24 10:50:00,
2013-10-24 05:55:00,29.8,25.6,29.57,NW,315,0.0,0.0,84,0.00,,,-99.99,VWS V12.07,2013-10-24 10:55:00,
2013-10-24 06:00:00,29.6,25.4,29.58,NW,315,0.0,0.0,84,0.00,,,-99.99,VWS V12.07,2013-10-24 11:00:00,
2013-10-24 06:05:00,29.8,25.6,29.58,West,270,0.0,0.0,84,0.00,,,-99.99,VWS V12.07,2013-10-24 11:05:00,
2013-10-24 06:10:00,29.8,25.6,29.58,WNW,292,0.0,1.1,84,0.00,,,-99.99,VWS V12.07,2013-10-24 11:10:00,
2013-10-24 06:15:00,29.8,25.6,29.58,SW,225,0.0,1.3,84,0.00,,,-99.99,VWS V12.07,2013-10-24 11:15:00,
2013-10-24 06:20:00,29.8,25.9,29.58,SW,225,0.0,1.1,85,0.00,,,-99.99,VWS V12.07,2013-10-24 11:20:00,
2013-10-24 06:25:00,29.8,25.9,29.58,SW,225,0.0,1.1,85,0.00,,,-99.99,VWS V12.07,2013-10-24 11:25:00,
2013-10-24 06:30:00,29.6,25.6,29.58,SW,225,0.0,1.1,85,0.00,,,-99.99,VWS V12.07,2013-10-24 11:30:00,
2013-10-24 06:35:00,29.4,25.5,29.58,SW,225,0.0,0.0,85,0.00,,,-99.99,VWS V12.07,2013-10-24 11:35:00,
2013-10-24 06:40:00,29.4,25.2,29.59,SW,225,0.0,0.0,84,0.00,,,-99.99,VWS V12.07,2013-10-24 11:40:00,
2013-10-24 06:45:00,29.3,25.4,29.59,WNW,292,0.0,0.0,85,0.00,,,-99.99,VWS V12.07,2013-10-24 11:45:00,
2013-10-24 06:50:00,29.1,25.2,29.59,WNW,292,0.0,0.0,85,0.00,,,-99.99,VWS V12.07,2013-10-24 11:50:00,
2013-10-24 06:55:00,29.1,25.2,29.59,WNW,292,0.0,0.0,85,0.00,,,-99.99,VWS V12.07,2013-10-24 11:55:00,
2013-10-24 07:00:00,29.1,25.2,29.59,WNW,292,0.0,0.0,85,0.00,,,-99.99,VWS V12.07,2013-10-24 12:00:00,
2013-10-24 07:05:00,29.1,25.2,29.59,WNW,292,0.0,0.0,85,0.00,,,-99.99,VWS V12.07,2013-10-24 12:05:00,
2013-10-24 07:10:00,29.1,25.2,29.59,WNW,292,0.0,0.0,85,0.00,,,-99.99,VWS V12.07,2013-10-24 12:10:00,
2013-10-24 07:15:00,29.1,25.2,29.59,WNW,292,0.0,0.0,85,0.00,,,-99.99,VWS V12.07,2013-10-24 12:15:00,
2013-10-24 07:20:00,29.1,25.2,29.59,WSW,248,0.0,0.0,85,0.00,,,-99.99,VWS V12.07,2013-10-24 12:20:00,
2013-10-24 07:25:00,29.1,25.2,29.59,West,270,0.0,0.0,85,0.00,,,-99.99,VWS V12.07,2013-10-24 12:25:00,
2013-10-24 07:30:00,29.1,25.2,29.58,West,270,0.0,0.0,85,0.00,,,-99.99,VWS V12.07,2013-10-24 12:30:00,
2013-10-24 07:35:00,29.1,25.2,29.59,WNW,292,3.1,3.1,85,0.00,,,-99.99,VWS V12.07,2013-10-24 12:35:00,
2013-10-24 07:40:00,29.1,25.2,29.59,WNW,292,0.0,3.1,85,0.00,,,-99.99,VWS V12.07,2013-10-24 12:40:00,
2013-10-24 07:45:00,29.1,25.2,29.59,West,270,0.0,3.1,85,0.00,,,-99.99,VWS V12.07,2013-10-24 12:45:00,
2013-10-24 07:50:00,29.1,25.2,29.59,West,270,0.0,0.0,85,0.00,,,-99.99,VWS V12.07,2013-10-24 12:50:00,
2013-10-24 07:55:00,29.1,25.2,29.59,SW,225,0.0,0.0,85,0.00,,,-99.99,VWS V12.07,2013-10-24 12:55:00,
2013-10-24 08:00:00,29.1,25.2,29.60,WSW,248,0.0,0.0,85,0.00,,,-99.99,VWS V12.07,2013-10-24 13:00:00,
2013-10-24 08:05:00,29.1,25.2,29.60,SW,225,0.0,0.0,85,0.00,,,-99.99,VWS V12.07,2013-10-24 13:05:00,
2013-10-24 08:10:00,29.1,25.2,29.61,WNW,292,0.0,0.0,85,0.00,,,-99.99,VWS V12.07,2013-10-24 13:10:00,
2013-10-24 08:15:00,29.3,25.6,29.61,WNW,292,0.0,0.0,86,0.00,,,-99.99,VWS V12.07,2013-10-24 13:15:00,
2013-10-24 08:20:00,29.4,25.7,29.61,West,270,0.0,0.0,86,0.00,,,-99.99,VWS V12.07,2013-10-24 13:20:00,
2013-10-24 08:25:00,29.4,25.7,29.61,WSW,248,0.0,0.0,86,0.00,,,-99.99,VWS V12.07,2013-10-24 13:25:00,
2013-10-24 08:30:00,29.4,25.7,29.61,West,270,0.0,0.0,86,0.00,,,-99.99,VWS V12.07,2013-10-24 13:30:00,
2013-10-24 08:35:00,29.4,25.7,29.62,WNW,292,0.0,0.0,86,0.00,,,-99.99,VWS V12.07,2013-10-24 13:35:00,
2013-10-24 08:40:00,29.4,25.7,29.61,West,270,0.0,0.0,86,0.00,,,-99.99,VWS V12.07,2013-10-24 13:40:00,
2013-10-24 08:45:00,29.6,25.9,29.61,West,270,0.0,0.0,86,0.00,,,-99.99,VWS V12.07,2013-10-24 13:45:00,
2013-10-24 08:50:00,30.0,26.3,29.62,West,270,0.0,0.0,86,0.00,,,-99.99,VWS V12.07,2013-10-24 13:50:00,
2013-10-24 08:55:00,30.0,26.3,29.62,WSW,248,0.0,0.0,86,0.00,,,-99.99,VWS V12.07,2013-10-24 13:55:00,
2013-10-24 09:00:00,30.0,26.3,29.62,WSW,248,0.0,0.0,86,0.00,,,-99.99,VWS V12.07,2013-10-24 14:00:00,
2013-10-24 09:05:00,30.0,26.3,29.62,SSW,202,0.0,1.5,86,0.00,,,-99.99,VWS V12.07,2013-10-24 14:05:00,
2013-10-24 09:10:00,30.2,26.5,29.63,SW,225,0.0,1.5,86,0.00,,,-99.99,VWS V12.07,2013-10-24 14:10:00,
2013-10-24 09:15:00,30.0,26.3,29.63,SW,225,0.0,1.5,86,0.00,,,-99.99,VWS V12.07,2013-10-24 14:15:00,
2013-10-24 09:20:00,30.0,26.3,29.63,West,270,0.0,0.0,86,0.00,,,-99.99,VWS V12.07,2013-10-24 14:20:00,
2013-10-24 09:25:00,30.2,26.5,29.63,WNW,292,0.0,0.0,86,0.00,,,-99.99,VWS V12.07,2013-10-24 14:25:00,
2013-10-24 09:30:00,30.3,26.6,29.63,WSW,248,0.0,0.0,86,0.00,,,-99.99,VWS V12.07,2013-10-24 14:30:00,
2013-10-24 09:35:00,30.7,27.3,29.63,WNW,292,0.0,0.0,87,0.00,,,-99.99,VWS V12.07,2013-10-24 14:35:00,
2013-10-24 09:40:00,30.9,27.5,29.63,WSW,248,0.0,7.3,87,0.00,,,-99.99,VWS V12.07,2013-10-24 14:40:00,
2013-10-24 09:45:00,31.1,27.7,29.63,West,270,5.5,7.3,87,0.00,,,-99.99,VWS V12.07,2013-10-24 14:45:00,
2013-10-24 09:50:00,31.1,27.4,29.64,West,270,0.0,0.0,86,0.00,,,-99.99,VWS V12.07,2013-10-24 14:50:00,
2013-10-24 09:55:00,31.2,27.5,29.64,South,180,0.0,0.0,86,0.00,,,-99.99,VWS V12.07,2013-10-24 14:55:00,
2013-10-24 10:00:00,31.2,27.5,29.64,SSE,158,0.0,0.0,86,0.00,,,-99.99,VWS V12.07,2013-10-24 15:00:00,
2013-10-24 10:05:00,31.2,27.5,29.64,SW,225,0.0,0.0,86,0.00,,,-99.99,VWS V12.07,2013-10-24 15:05:00,
2013-10-24 10:10:00,31.2,27.5,29.64,NW,315,0.0,0.0,86,0.00,,,-99.99,VWS V12.07,2013-10-24 15:10:00,
2013-10-24 10:15:00,31.2,27.5,29.64,SW,225,0.0,0.0,86,0.00,,,-99.99,VWS V12.07,2013-10-24 15:15:00,
2013-10-24 10:20:00,31.2,27.5,29.64,WSW,248,0.0,0.0,86,0.00,,,-99.99,VWS V12.07,2013-10-24 15:20:00,
2013-10-24 10:25:00,31.2,27.5,29.65,NNW,338,0.0,0.0,86,0.00,,,-99.99,VWS V12.07,2013-10-24 15:25:00,
2013-10-24 10:30:00,31.2,27.5,29.65,NNE,22,0.0,0.0,86,0.00,,,-99.99,VWS V12.07,2013-10-24 15:30:00,
2013-10-24 10:35:00,31.2,27.5,29.65,North,0,0.0,0.0,86,0.00,,,-99.99,VWS V12.07,2013-10-24 15:35:00,
2013-10-24 10:40:00,31.2,27.5,29.65,North,0,0.0,0.0,86,0.00,,,-99.99,VWS V12.07,2013-10-24 15:40:00,
2013-10-24 10:45:00,31.2,27.5,29.65,NNE,22,0.0,2.0,86,0.00,,,-99.99,VWS V12.07,2013-10-24 15:45:00,
2013-10-24 10:50:00,31.6,27.9,29.65,ESE,112,2.9,2.9,86,0.00,,,-99.99,VWS V12.07,2013-10-24 15:50:00,
2013-10-24 10:55:00,31.6,27.9,29.65,NW,315,0.0,2.9,86,0.00,,,-99.99,VWS V12.07,2013-10-24 15:55:00,
2013-10-24 11:00:00,31.8,28.1,29.65,WSW,248,0.0,5.1,86,0.00,,,-99.99,VWS V12.07,2013-10-24 16:00:00,
2013-10-24 11:05:00,32.1,28.4,29.66,West,270,0.0,0.8,86,0.00,,,-99.99,VWS V12.07,2013-10-24 16:05:00,
2013-10-24 11:10:00,32.1,28.4,29.66,SW,225,0.0,0.8,86,0.00,,,-99.99,VWS V12.07,2013-10-24 16:10:00,
2013-10-24 11:15:00,32.3,28.9,29.65,NNW,338,3.1,3.1,87,0.00,,,-99.99,VWS V12.07,2013-10-24 16:15:00,
2013-10-24 11:20:00,32.5,29.1,29.66,NW,315,0.0,0.0,87,0.00,,,-99.99,VWS V12.07,2013-10-24 16:20:00,
2013-10-24 11:25:00,32.5,29.1,29.66,NW,315,0.0,0.0,87,0.00,,,-99.99,VWS V12.07,2013-10-24 16:25:00,
2013-10-24 11:30:00,32.7,29.0,29.66,West,270,0.0,0.0,86,0.00,,,-99.99,VWS V12.07,2013-10-24 16:30:00,
2013-10-24 11:35:00,32.7,29.0,29.67,SE,135,0.0,1.1,86,0.00,,,-99.99,VWS V12.07,2013-10-24 16:35:00,
2013-10-24 11:40:00,32.7,29.3,29.67,SSW,202,1.7,1.7,87,0.00,,,-99.99,VWS V12.07,2013-10-24 16:40:00,
2013-10-24 11:45:00,33.0,29.6,29.67,WNW,292,0.0,1.7,87,0.02,,,-99.99,VWS V12.07,2013-10-24 16:45:00,
2013-10-24 11:50:00,32.9,29.2,29.67,NW,315,0.0,0.0,86,0.02,,,-99.99,VWS V12.07,2013-10-24 16:50:00,
2013-10-24 11:55:00,32.7,29.0,29.67,NE,45,0.0,0.6,86,0.02,,,-99.99,VWS V12.07,2013-10-24 16:55:00,
2013-10-24 12:00:00,32.5,28.8,29.66,NE,45,6.0,6.0,86,0.02,,,-99.99,VWS V12.07,2013-10-24 17:00:00,
2013-10-24 12:05:00,32.1,28.4,29.65,NE,45,0.0,3.1,86,0.02,,,-99.99,VWS V12.07,2013-10-24 17:05:00,
2013-10-24 12:10:00,32.1,28.4,29.66,North,0,0.0,3.1,86,0.02,,,-99.99,VWS V12.07,2013-10-24 17:10:00,
2013-10-24 12:15:00,32.1,28.4,29.67,North,0,0.0,3.1,86,0.02,,,-99.99,VWS V12.07,2013-10-24 17:15:00,
2013-10-24 12:20:00,32.1,28.4,29.68,WNW,292,0.0,1.7,86,0.02,,,-99.99,VWS V12.07,2013-10-24 17:20:00,
2013-10-24 12:25:00,32.1,28.4,29.67,NNE,22,1.5,1.7,86,0.02,,,-99.99,VWS V12.07,2013-10-24 17:25:00,
2013-10-24 12:30:00,32.5,29.1,29.67,NNE,22,0.0,1.7,87,0.02,,,-99.99,VWS V12.07,2013-10-24 17:30:00,
2013-10-24 12:35:00,32.5,29.1,29.66,West,270,0.0,0.0,87,0.02,,,-99.99,VWS V12.07,2013-10-24 17:35:00,
2013-10-24 12:40:00,32.5,29.1,29.67,NNW,338,0.0,0.0,87,0.02,,,-99.99,VWS V12.07,2013-10-24 17:40:00,
2013-10-24 12:45:00,32.5,29.1,29.67,West,270,1.1,1.1,87,0.00,,,-99.99,VWS V12.07,2013-10-24 17:45:00,
2013-10-24 12:50:00,32.3,28.9,29.67,SW,225,0.0,0.0,87,0.00,,,-99.99,VWS V12.07,2013-10-24 17:50:00,
2013-10-24 12:55:00,32.1,28.4,29.67,SW,225,0.0,0.0,86,0.00,,,-99.99,VWS V12.07,2013-10-24 17:55:00,
2013-10-24 13:00:00,32.1,28.4,29.68,West,270,0.0,0.0,86,0.00,,,-99.99,VWS V12.07,2013-10-24 18:00:00,
2013-10-24 13:05:00,31.8,28.1,29.67,West,270,0.0,0.0,86,0.00,,,-99.99,VWS V12.07,2013-10-24 18:05:00,
2013-10-24 13:10:00,32.1,28.4,29.67,WNW,292,0.0,0.0,86,0.00,,,-99.99,VWS V12.07,2013-10-24 18:10:00,
2013-10-24 13:15:00,32.3,28.9,29.67,NNE,22,0.0,1.3,87,0.00,,,-99.99,VWS V12.07,2013-10-24 18:15:00,
2013-10-24 13:20:00,32.7,29.3,29.67,North,0,5.5,5.5,87,0.00,,,-99.99,VWS V12.07,2013-10-24 18:20:00,
2013-10-24 13:25:00,32.7,29.3,29.67,NNW,338,1.3,5.5,87,0.00,,,-99.99,VWS V12.07,2013-10-24 18:25:00,
2013-10-24 13:30:00,32.9,29.5,29.67,WNW,292,0.0,5.5,87,0.00,,,-99.99,VWS V12.07,2013-10-24 18:30:00,
2013-10-24 13:35:00,33.2,29.8,29.67,NW,315,0.0,2.2,87,0.00,,,-99.99,VWS V12.07,2013-10-24 18:35:00,
2013-10-24 13:40:00,33.4,30.0,29.67,SSW,202,5.8,5.8,87,0.00,,,-99.99,VWS V12.07,2013-10-24 18:40:00,
2013-10-24 13:45:00,33.6,30.1,29.67,WNW,292,0.0,5.8,87,0.00,,,-99.99,VWS V12.07,2013-10-24 18:45:00,
2013-10-24 13:50:00,33.6,30.1,29.68,WSW,248,1.5,2.2,87,0.00,,,-99.99,VWS V12.07,2013-10-24 18:50:00,
2013-10-24 13:55:00,33.8,30.1,29.67,NNE,22,2.2,2.2,86,0.02,,,-99.99,VWS V12.07,2013-10-24 18:55:00,
2013-10-24 14:00:00,33.9,30.2,29.68,NNW,338,0.0,2.2,86,0.02,,,-99.99,VWS V12.07,2013-10-24 19:00:00,
2013-10-24 14:05:00,34.1,30.4,29.68,NW,315,1.3,2.4,86,0.02,,,-99.99,VWS V12.07,2013-10-24 19:05:00,
2013-10-24 14:10:00,34.1,30.1,29.68,SW,225,3.3,3.3,85,0.02,,,-99.99,VWS V12.07,2013-10-24 19:10:00,
2013-10-24 14:15:00,34.3,30.3,29.68,NW,315,1.5,4.6,85,0.02,,,-99.99,VWS V12.07,2013-10-24 19:15:00,
2013-10-24 14:20:00,34.3,30.3,29.68,North,0,0.0,0.0,85,0.02,,,-99.99,VWS V12.07,2013-10-24 19:20:00,
2013-10-24 14:25:00,34.3,30.0,29.68,NE,45,2.9,2.9,84,0.02,,,-99.99,VWS V12.07,2013-10-24 19:25:00,
2013-10-24 14:30:00,34.3,30.0,29.68,ENE,68,0.8,2.9,84,0.02,,,-99.99,VWS V12.07,2013-10-24 19:30:00,
2013-10-24 14:35:00,34.3,30.0,29.68,NNW,338,0.8,5.1,84,0.02,,,-99.99,VWS V12.07,2013-10-24 19:35:00,
2013-10-24 14:40:00,34.3,29.7,29.68,WNW,292,4.9,5.1,83,0.02,,,-99.99,VWS V12.07,2013-10-24 19:40:00,
2013-10-24 14:45:00,34.7,30.1,29.68,WNW,292,1.1,5.1,83,0.02,,,-99.99,VWS V12.07,2013-10-24 19:45:00,
2013-10-24 14:50:00,34.7,30.1,29.68,SSE,158,0.0,2.4,83,0.00,,,-99.99,VWS V12.07,2013-10-24 19:50:00,
2013-10-24 14:55:00,34.8,30.2,29.68,NNW,338,4.2,4.2,83,0.00,,,-99.99,VWS V12.07,2013-10-24 19:55:00,
2013-10-24 15:00:00,34.8,30.2,29.69,West,270,6.0,6.0,83,0.00,,,-99.99,VWS V12.07,2013-10-24 20:00:00,
2013-10-24 15:05:00,35.0,30.1,29.68,WNW,292,0.0,0.0,82,0.00,,,-99.99,VWS V12.07,2013-10-24 20:05:00,
2013-10-24 15:10:00,35.2,30.3,29.69,WNW,292,0.0,2.4,82,0.00,,,-99.99,VWS V12.07,2013-10-24 20:10:00,
2013-10-24 15:15:00,35.0,30.1,29.69,NW,315,0.8,2.4,82,0.00,,,-99.99,VWS V12.07,2013-10-24 20:15:00,
2013-10-24 15:20:00,35.2,30.3,29.69,NW,315,0.0,0.0,82,0.00,,,-99.99,VWS V12.07,2013-10-24 20:20:00,
2013-10-24 15:25:00,35.2,30.3,29.69,NNE,22,1.1,6.2,82,0.00,,,-99.99,VWS V12.07,2013-10-24 20:25:00,
2013-10-24 15:30:00,35.2,30.0,29.70,NW,315,2.9,6.2,81,0.00,,,-99.99,VWS V12.07,2013-10-24 20:30:00,
2013-10-24 15:35:00,35.4,30.2,29.69,WSW,248,0.0,0.0,81,0.00,,,-99.99,VWS V12.07,2013-10-24 20:35:00,
2013-10-24 15:40:00,35.4,30.2,29.69,SW,225,1.5,1.5,81,0.00,,,-99.99,VWS V12.07,2013-10-24 20:40:00,
2013-10-24 15:45:00,35.4,30.2,29.70,West,270,3.8,3.8,81,0.00,,,-99.99,VWS V12.07,2013-10-24 20:45:00,
2013-10-24 15:50:00,35.6,30.0,29.70,North,0,0.0,0.8,80,0.00,,,-99.99,VWS V12.07,2013-10-24 20:50:00,
2013-10-24 15:55:00,35.7,30.1,29.70,West,270,0.0,2.9,80,0.00,,,-99.99,VWS V12.07,2013-10-24 20:55:00,
2013-10-24 16:00:00,35.6,30.0,29.70,SW,225,2.9,2.9,80,0.00,,,-99.99,VWS V12.07,2013-10-24 21:00:00,
2013-10-24 16:05:00,35.7,29.8,29.70,NNE,22,4.9,4.9,79,0.00,,,-99.99,VWS V12.07,2013-10-24 21:05:00,
2013-10-24 16:10:00,35.7,29.8,29.70,North,0,0.0,4.9,79,0.00,,,-99.99,VWS V12.07,2013-10-24 21:10:00,
2013-10-24 16:15:00,35.9,30.0,29.70,NW,315,4.0,5.3,79,0.00,,,-99.99,VWS V12.07,2013-10-24 21:15:00,
2013-10-24 16:20:00,36.1,29.9,29.70,WNW,292,0.0,2.6,78,0.00,,,-99.99,VWS V12.07,2013-10-24 21:20:00,
2013-10-24 16:25:00,35.9,29.7,29.71,East,90,2.4,5.8,78,0.00,,,-99.99,VWS V12.07,2013-10-24 21:25:00,
2013-10-24 16:30:00,35.7,29.2,29.71,NE,45,0.0,5.8,77,0.00,,,-99.99,VWS V12.07,2013-10-24 21:30:00,
2013-10-24 16:35:00,35.4,29.2,29.71,NE,45,0.0,2.9,78,0.00,,,-99.99,VWS V12.07,2013-10-24 21:35:00,
2013-10-24 16:40:00,35.4,29.2,29.71,NNW,338,2.0,2.9,78,0.00,,,-99.99,VWS V12.07,2013-10-24 21:40:00,
2013-10-24 16:45:00,35.2,29.0,29.71,NNW,338,0.0,2.9,78,0.00,,,-99.99,VWS V12.07,2013-10-24 21:45:00,
2013-10-24 16:50:00,35.0,28.9,29.71,WNW,292,6.2,6.2,78,0.00,,,-99.99,VWS V12.07,2013-10-24 21:50:00,
2013-10-24 16:55:00,34.8,28.6,29.72,NNE,22,0.0,6.2,78,0.00,,,-99.99,VWS V12.07,2013-10-24 21:55:00,
2013-10-24 17:00:00,34.8,28.6,29.72,NNW,338,0.0,6.2,78,0.00,,,-99.99,VWS V12.07,2013-10-24 22:00:00,
2013-10-24 17:05:00,34.8,28.6,29.72,NE,45,4.0,4.0,78,0.00,,,-99.99,VWS V12.07,2013-10-24 22:05:00,
2013-10-24 17:10:00,34.7,28.5,29.72,NE,45,4.2,4.2,78,0.00,,,-99.99,VWS V12.07,2013-10-24 22:10:00,
2013-10-24 17:15:00,34.5,28.4,29.72,NE,45,0.0,4.2,78,0.00,,,-99.99,VWS V12.07,2013-10-24 22:15:00,
2013-10-24 17:20:00,34.3,28.2,29.72,NE,45,3.8,3.8,78,0.00,,,-99.99,VWS V12.07,2013-10-24 22:20:00,
2013-10-24 17:25:00,34.3,28.5,29.73,NE,45,1.1,3.8,79,0.00,,,-99.99,VWS V12.07,2013-10-24 22:25:00,
2013-10-24 17:30:00,33.9,28.1,29.73,NNE,22,3.8,3.8,79,0.00,,,-99.99,VWS V12.07,2013-10-24 22:30:00,
2013-10-24 17:40:00,33.4,27.9,29.73,NE,45,0.0,0.0,80,0.00,,,-99.99,VWS V12.07,2013-10-24 22:40:00,
2013-10-24 17:45:00,33.2,27.7,29.73,NNE,22,0.0,0.0,80,0.00,,,-99.99,VWS V12.07,2013-10-24 22:45:00,
2013-10-24 17:50:00,32.9,27.7,29.74,NNE,22,5.5,5.5,81,0.00,,,-99.99,VWS V12.07,2013-10-24 22:50:00,
2013-10-24 17:55:00,32.7,27.5,29.74,WNW,292,0.0,5.5,81,0.00,,,-99.99,VWS V12.07,2013-10-24 22:55:00,
2013-10-24 18:00:00,32.7,27.5,29.74,WNW,292,0.0,5.5,81,0.00,,,-99.99,VWS V12.07,2013-10-24 23:00:00,
2013-10-24 18:05:00,32.3,27.4,29.74,WNW,292,0.0,0.0,82,0.00,,,-99.99,VWS V12.07,2013-10-24 23:05:00,
2013-10-24 18:10:00,32.1,27.2,29.74,WNW,292,0.0,0.0,82,0.00,,,-99.99,VWS V12.07,2013-10-24 23:10:00,
2013-10-24 18:15:00,32.1,27.2,29.74,WNW,292,0.0,0.0,82,0.00,,,-99.99,VWS V12.07,2013-10-24 23:15:00,
2013-10-24 18:20:00,31.8,26.9,29.74,WNW,292,0.0,0.0,82,0.00,,,-99.99,VWS V12.07,2013-10-24 23:20:00,
2013-10-24 18:25:00,31.6,26.8,29.74,WNW,292,0.0,0.0,82,0.00,,,-99.99,VWS V12.07,2013-10-24 23:25:00,
2013-10-24 18:30:00,31.6,26.8,29.75,WNW,292,0.0,0.0,82,0.00,,,-99.99,VWS V12.07,2013-10-24 23:30:00,
2013-10-24 18:35:00,31.2,26.4,29.75,WNW,292,0.0,0.0,82,0.00,,,-99.99,VWS V12.07,2013-10-24 23:35:00,
2013-10-24 18:40:00,31.1,26.3,29.75,WNW,292,0.0,0.0,82,0.00,,,-99.99,VWS V12.07,2013-10-24 23:40:00,
2013-10-24 18:45:00,30.9,26.1,29.75,WNW,292,0.0,0.0,82,0.00,,,-99.99,VWS V12.07,2013-10-24 23:45:00,
2013-10-24 18:50:00,30.7,26.2,29.75,WNW,292,0.0,0.0,83,0.00,,,-99.99,VWS V12.07,2013-10-24 23:50:00,
2013-10-24 18:55:00,30.7,26.2,29.75,WNW,292,0.0,0.0,83,0.00,,,-99.99,VWS V12.07,2013-10-24 23:55:00,
2013-10-24 19:00:00,30.5,26.0,29.75,WNW,292,0.0,0.0,83,0.00,,,-99.99,VWS V12.07,2013-10-25 00:00:00,
2013-10-24 19:05:00,30.5,26.0,29.75,WNW,292,0.0,0.0,83,0.00,,,-99.99,VWS V12.07,2013-10-25 00:05:00,
2013-10-24 19:10:00,30.3,25.8,29.75,WNW,292,0.0,0.0,83,0.00,,,-99.99,VWS V12.07,2013-10-25 00:10:00,
2013-10-24 19:15:00,30.3,25.8,29.75,WNW,292,0.0,0.0,83,0.00,,,-99.99,VWS V12.07,2013-10-25 00:15:00,
2013-10-24 19:20:00,30.0,25.5,29.75,WNW,292,0.0,0.0,83,0.00,,,-99.99,VWS V12.07,2013-10-25 00:20:00,
2013-10-24 19:25:00,30.0,25.5,29.75,WNW,292,0.0,0.0,83,0.00,,,-99.99,VWS V12.07,2013-10-25 00:25:00,
2013-10-24 19:30:00,30.0,25.5,29.75,WNW,292,0.0,0.0,83,0.00,,,-99.99,VWS V12.07,2013-10-25 00:30:00,
2013-10-24 19:35:00,29.6,25.1,29.76,WNW,292,0.0,0.0,83,0.00,,,-99.99,VWS V12.07,2013-10-25 00:35:00,
2013-10-24 19:40:00,29.4,24.9,29.75,WNW,292,0.0,0.0,83,0.00,,,-99.99,VWS V12.07,2013-10-25 00:40:00,
2013-10-24 19:45:00,29.3,24.8,29.76,WNW,292,0.0,0.0,83,0.00,,,-99.99,VWS V12.07,2013-10-25 00:45:00,
2013-10-24 19:50:00,29.1,24.6,29.76,WNW,292,0.0,0.0,83,0.00,,,-99.99,VWS V12.07,2013-10-25 00:50:00,
2013-10-24 19:55:00,28.9,24.4,29.76,WNW,292,0.0,0.0,83,0.00,,,-99.99,VWS V12.07,2013-10-25 00:55:00,
2013-10-24 20:00:00,28.9,24.4,29.76,WNW,292,0.0,0.0,83,0.00,,,-99.99,VWS V12.07,2013-10-25 01:00:00,
2013-10-24 20:05:00,28.7,24.5,29.76,WNW,292,0.0,0.0,84,0.00,,,-99.99,VWS V12.07,2013-10-25 01:05:00,
2013-10-24 20:10:00,28.5,24.3,29.76,WNW,292,0.0,0.0,84,0.00,,,-99.99,VWS V12.07,2013-10-25 01:10:00,
2013-10-24 20:15:00,28.5,24.3,29.76,WNW,292,0.0,0.0,84,0.00,,,-99.99,VWS V12.07,2013-10-25 01:15:00,
2013-10-24 20:20:00,28.4,24.2,29.76,WNW,292,0.0,0.0,84,0.00,,,-99.99,VWS V12.07,2013-10-25 01:20:00,
2013-10-24 20:25:00,28.2,24.0,29.76,WNW,292,0.0,0.0,84,0.00,,,-99.99,VWS V12.07,2013-10-25 01:25:00,
2013-10-24 20:30:00,28.2,24.0,29.75,WNW,292,0.0,0.0,84,0.00,,,-99.99,VWS V12.07,2013-10-25 01:30:00,
2013-10-24 20:35:00,28.2,24.0,29.75,WNW,292,0.0,0.0,84,0.00,,,-99.99,VWS V12.07,2013-10-25 01:35:00,
2013-10-24 20:40:00,28.2,24.0,29.76,WNW,292,0.0,0.0,84,0.00,,,-99.99,VWS V12.07,2013-10-25 01:40:00,
2013-10-24 20:45:00,28.2,24.0,29.75,WNW,292,0.0,0.0,84,0.00,,,-99.99,VWS V12.07,2013-10-25 01:45:00,
2013-10-24 20:50:00,28.2,24.0,29.75,WNW,292,0.0,0.0,84,0.00,,,-99.99,VWS V12.07,2013-10-25 01:50:00,
2013-10-24 20:55:00,28.2,24.0,29.75,WNW,292,0.0,0.0,84,0.00,,,-99.99,VWS V12.07,2013-10-25 01:55:00,
2013-10-24 21:00:00,28.0,23.8,29.75,WNW,292,0.0,0.0,84,0.00,,,-99.99,VWS V12.07,2013-10-25 02:00:00,
2013-10-24 21:05:00,28.0,23.8,29.75,WNW,292,0.0,0.0,84,0.00,,,-99.99,VWS V12.07,2013-10-25 02:05:00,
2013-10-24 21:10:00,28.0,23.8,29.75,WNW,292,0.0,0.0,84,0.00,,,-99.99,VWS V12.07,2013-10-25 02:10:00,
2013-10-24 21:15:00,28.0,23.8,29.75,WNW,292,0.0,0.0,84,0.00,,,-99.99,VWS V12.07,2013-10-25 02:15:00,
2013-10-24 21:20:00,28.0,23.8,29.75,WNW,292,0.0,0.0,84,0.00,,,-99.99,VWS V12.07,2013-10-25 02:20:00,
2013-10-24 21:25:00,28.0,24.1,29.75,WNW,292,0.0,0.0,85,0.00,,,-99.99,VWS V12.07,2013-10-25 02:25:00,
2013-10-24 21:30:00,28.2,24.3,29.76,WNW,292,0.0,0.0,85,0.00,,,-99.99,VWS V12.07,2013-10-25 02:30:00,
2013-10-24 21:35:00,28.2,24.3,29.75,WNW,292,0.0,0.0,85,0.00,,,-99.99,VWS V12.07,2013-10-25 02:35:00,
2013-10-24 21:40:00,28.2,24.3,29.75,WNW,292,0.0,0.0,85,0.00,,,-99.99,VWS V12.07,2013-10-25 02:40:00,
2013-10-24 21:45:00,28.2,24.3,29.75,WNW,292,0.0,0.0,85,0.00,,,-99.99,VWS V12.07,2013-10-25 02:45:00,
2013-10-24 21:50:00,28.4,24.5,29.76,WNW,292,0.0,0.0,85,0.00,,,-99.99,VWS V12.07,2013-10-25 02:50:00,
2013-10-24 21:55:00,28.5,24.6,29.77,WNW,292,0.0,0.0,85,0.00,,,-99.99,VWS V12.07,2013-10-25 02:55:00,
2013-10-24 22:00:00,28.5,24.6,29.77,WNW,292,0.0,0.0,85,0.00,,,-99.99,VWS V12.07,2013-10-25 03:00:00,
2013-10-24 22:05:00,28.7,24.8,29.76,WNW,292,0.0,0.0,85,0.00,,,-99.99,VWS V12.07,2013-10-25 03:05:00,
2013-10-24 22:10:00,28.7,24.8,29.76,WNW,292,0.0,0.0,85,0.00,,,-99.99,VWS V12.07,2013-10-25 03:10:00,
2013-10-24 22:15:00,28.7,24.8,29.76,WNW,292,0.0,0.0,85,0.00,,,-99.99,VWS V12.07,2013-10-25 03:15:00,
2013-10-24 22:20:00,28.7,24.8,29.76,WNW,292,0.0,0.0,85,0.00,,,-99.99,VWS V12.07,2013-10-25 03:20:00,
2013-10-24 22:25:00,28.7,24.8,29.76,WNW,292,0.0,0.0,85,0.00,,,-99.99,VWS V12.07,2013-10-25 03:25:00,
2013-10-24 22:30:00,28.5,24.6,29.76,WNW,292,0.0,0.0,85,0.00,,,-99.99,VWS V12.07,2013-10-25 03:30:00,
2013-10-24 22:35:00,28.5,24.6,29.76,WNW,292,0.0,0.0,85,0.00,,,-99.99,VWS V12.07,2013-10-25 03:35:00,
2013-10-24 22:40:00,28.5,24.6,29.77,WNW,292,0.0,0.0,85,0.00,,,-99.99,VWS V12.07,2013-10-25 03:40:00,
2013-10-24 22:45:00,28.5,24.6,29.76,WNW,292,0.0,0.0,85,0.00,,,-99.99,VWS V12.07,2013-10-25 03:45:00,
2013-10-24 22:50:00,28.4,24.5,29.76,WNW,292,0.0,0.0,85,0.00,,,-99.99,VWS V12.07,2013-10-25 03:50:00,
2013-10-24 22:55:00,28.2,24.3,29.77,WNW,292,0.0,0.0,85,0.00,,,-99.99,VWS V12.07,2013-10-25 03:55:00,
2013-10-24 23:00:00,28.2,24.3,29.77,WNW,292,0.0,0.0,85,0.00,,,-99.99,VWS V12.07,2013-10-25 04:00:00,
2013-10-24 23:05:00,28.2,24.3,29.77,WNW,292,0.0,0.0,85,0.00,,,-99.99,VWS V12.07,2013-10-25 04:05:00,
2013-10-24 23:10:00,28.0,24.1,29.76,WNW,292,0.0,0.0,85,0.00,,,-99.99,VWS V12.07,2013-10-25 04:10:00,
2013-10-24 23:15:00,28.0,24.1,29.77,WNW,292,0.0,0.0,85,0.00,,,-99.99,VWS V12.07,2013-10-25 04:15:00,
2013-10-24 23:20:00,27.8,23.9,29.77,WNW,292,0.0,0.0,85,0.00,,,-99.99,VWS V12.07,2013-10-25 04:20:00,
2013-10-24 23:25:00,27.6,23.4,29.77,WNW,292,0.0,0.0,84,0.00,,,-99.99,VWS V12.07,2013-10-25 04:25:00,
2013-10-24 23:30:00,27.6,23.4,29.77,WNW,292,0.0,0.0,84,0.00,,,-99.99,VWS V12.07,2013-10-25 04:30:00,
2013-10-24 23:40:00,27.3,23.4,29.78,WNW,292,0.0,0.0,85,0.00,,,-99.99,VWS V12.07,2013-10-25 04:40:00,
2013-10-24 23:45:00,27.1,23.2,29.78,WNW,292,0.0,0.0,85,0.00,,,-99.99,VWS V12.07,2013-10-25 04:45:00,
2013-10-24 23:50:00,27.1,23.2,29.78,WNW,292,0.0,0.0,85,0.00,,,-99.99,VWS V12.07,2013-10-25 04:50:00,
2013-10-24 23:55:00,26.9,23.0,29.78,WNW,292,0.0,0.0,85,0.00,,,-99.99,VWS V12.07,2013-10-25 04:55:00,